www.pogodaiklimat.ru

Погода и климат >> Архив погоды >> Индия >> Sambalpur


ПОГОДА в Sambalpur

  • Прогноз погоды в Sambalpur
  • Монитор погоды в Sambalpur
  • Климат города

АРХИВ ПОГОДЫ в Sambalpur

Время (UTC), дата Ветер
(напр.,м/с)
 
Видим.   Явления Облачность Т
(С)
Тd
(С)
f
(%)
Тe
(С)
Тes
(С)
Комфортность P
(гПа)
Po
(гПа)
Тmin
(С)
Tmax
(С)
R
(мм)
R24
(мм)
S
(см)
12 17.09 штиль 0 2000 м мгла {дождь} 9/6 600 м
[Sc As op]
+25.2 +24.6 96 +35 +35 очень
душно
1003.7 1004.0 +31.5 12
03 18.09 штиль 0 4000 м 6/6 600 м
[Sc]
+26.4 +24.7 90 +37 +41 очень
душно
1006.4 1006.0 +23.6 12
06 18.09 штиль 0 4000 м 6/5 600 м
[Sc diur, vesp]
+30.8 +26.0 76 +46 +58 опасность
перегрева
1005.3 1005.0
09 18.09 ЮЗ 1 4000 м 5/5 600 м
[Sc diur, vesp]
+34.2 +26.1 63 +50 +58 опасность
перегрева
1001.9 1002.0
12 18.09 ЮЗ 1 2000 м слабый дождь 10/6 600 м
[Frnb As op]
+27.4 +22.3 74 +36 +36 очень
душно
1002.8 1003.0 +34.6 20
03 19.09 штиль 0 4000 м 6/5 600 м
[Sc]
+28.2 +25.4 85 +41 +46 опасность
перегрева
1006.3 1006.0 +22.6 20
06 19.09 штиль 0 4000 м 5/5 600 м
[Sc]
+31.8 +25.3 69 +46 +59 опасность
перегрева
1004.9 1005.0
09 19.09 штиль 0 4000 м 5/5 600 м
[Sc]
+33.6 +25.0 61 +47 +55 опасность
перегрева
1002.3 1002.0
12 19.09 штиль 0 4000 м 6/5 600 м
[Sc Ac trans]
+32.0 +27.0 75 +50 +50 опасность
перегрева
1001.3 1001.0 +34.0
03 20.09 СВ 1 2000 м мгла {дождь} 10/6 600 м
[Sc As trans]
+27.4 +24.8 86 +39 +41 очень
душно
1003.0 1003.0 +26.0 0.2
06 20.09 штиль 0 4000 м мгла {дождь} 9/6 600 м
[Sc As trans]
+29.0 +26.2 85 +44 +50 опасность
перегрева
1003.1 1003.0 0.4
09 20.09 штиль 0 4000 м 9/6 600 м
[Sc As trans]
+27.4 +25.4 89 +40 +44 очень
душно
999.7 1000.0 4
12 20.09 штиль 0 4000 м 9/6 600 м
[Sc As trans]
+27.6 +23.8 80 +38 +38 очень
душно
999.1 999.0 +29.1 4
03 21.09 штиль 0 2000 м слабый дождь 10/6 600 м
[Frnb As op]
+25.8 +24.6 93 +36 +37 очень
душно
1000.6 1001.0 +23.3 12
06 21.09 ЮЗ 1 4000 м мгла {дождь} 9/6 600 м
[Sc As trans]
+27.6 +25.3 87 +40 +45 очень
душно
1001.0 1001.0 0.4
09 21.09 СВ 1 4000 м мгла 9/6 600 м
[St As trans]
+28.6 +25.2 82 +42 +45 опасность
перегрева
999.8 1000.0 0.4
12 21.09 СВ 1 2000 м мгла 9/6 600 м
[St As trans]
+27.0 +23.6 82 +37 +37 очень
душно
1000.6 1001.0 +29.8 0.4
03 22.09 СВ 1 4000 м 9/6 600 м
[Sc Ac trans]
+26.6 +24.3 87 +37 +39 очень
душно
1010.7 1011.0 +23.8 0.4
06 22.09 СВ 1 4000 м 6/5 600 м
[Sc Ac trans]
+29.0 +25.0 79 +42 +52 опасность
перегрева
1011.2 1011.0
09 22.09 штиль 0 4000 м 8/5 600 м
[Sc Ac trans]
+29.2 +24.9 78 +42 +47 опасность
перегрева
1009.4 1009.0
12 22.09 СВ 1 4000 м 9/6 600 м
[Sc Ac trans]
+28.0 +24.6 82 +40 +40 очень
душно
1008.9 1009.0 +30.7
03 23.09 СВ 1 4000 м 5/4 600 м
[Sc Ac trans]
+27.6 +24.4 83 +39 +44 очень
душно
1014.0 1014.0 +23.5
06 23.09 штиль 0 4000 м 5/5 600 м
[Sc diur, vesp]
+31.6 +24.5 66 +44 +57 опасность
перегрева
1013.3 1013.0
09 23.09 штиль 0 4000 м 5/5 600 м
[Sc]
+33.8 +25.1 61 +48 +56 опасность
перегрева
1009.8 1010.0
12 23.09 штиль 0 4000 м 5/4 600 м
[Sc diur, vesp Ac trans]
+32.0 +25.8 70 +47 +47 опасность
перегрева
1009.1 1009.0 +37.4
03 24.09 З 1 4000 м 4/4 600 м
[Sc diur, vesp]
+28.4 +25.6 85 +42 +47 опасность
перегрева
1012.3 1012.0 +25.1
06 24.09 штиль 0 4000 м 4/4 600 м
[Sc diur, vesp]
+32.4 +26.0 69 +48 +63 опасность
перегрева
1011.2 1011.0

 

Местоположение метеостанции Sambalpur (Orissa, Индия): широта 21.47 долгота 83.97 высота над уровнем моря 148 м.

В архиве по умолчанию представлена погода в Sambalpur за последнюю неделю. Архивные данные за месяц целиком и за предыдущие месяцы, начиная с января 2011 года, Вы можете получить, выбрав интересующий диапазон дат из раскрывающегося списка и нажав кнопку "Ввод!".


*Определитесь, кто Вы:
робот инопланетянин человек

Внимание! Время в таблицах - всемирное. Для получения местного времени необходимо прибавить поправку, которая в Sambalpur равна 5.5 ч.

Смотрите также архив погоды в соседних городах и на ближайших метеорологических станциях:

Погода в Hirakud (Orissa, Индия) (12 км)
Погода в Jharsuguda (Orissa, Индия) (51 км)
Погода в Sundargarh (Orissa, Индия) (73 км)
Погода в Phulbani (Orissa, Индия) (114 км)
Погода в Angul (Orissa, Индия) (137 км)
Погода в Titlagarh (Orissa, Индия) (148 км)
Погода в Keongjhargarh (Orissa, Индия) (161 км)
Погода в Bhawanipatna (Orissa, Индия) (191 км)
Погода в Bilaspur (Chhattisgarh, Индия) (199 км)
Погода в Ambikapur (Chhattisgarh, Индия) (203 км)

Пояснения к столбцам:

Ветер - указаны скорость ветра в м/с - средняя за 10 мин, порывы в срок и между сроками (в фигурных скобках) и направление, откуда дует ветер: С - северный, СВ - северо-восточный, В - восточный, ЮВ - юго-восточный, Ю - южный, ЮЗ - юго-западный, З - западный, СЗ - северо-западный.
Видимость - горизонтальная дальность видимости в метрах или километрах. При видимости от 1 до 10 км при отсутствии осадков обычно наблюдается дымка, при ухудшении видимости до 1 км и менее - туман. В сухую погоду видимость может ухудшаться дымом, пылью или мглою.
Явления - указаны атмосферные явления, наблюдавшиеся в срок или в последний час перед сроком; фигурными скобками обозначены явления, наблюдавшиеся между сроками (за 1-3 часа до срока); квадратными скобками обозначены град или гололедные отложения с указанием их диаметра в мм.
Облачность - указаны через наклонную черту общая и нижняя облачность в баллах и высота нижней границы облаков в метрах; квадратными скобками обозначены формы облаков: Ci - перистые, Cs - перисто-слоистые, Cc - перисто-кучевые, Ac - высококучевые, As - высокослоистые, Sc - слоисто-кучевые, Ns - слоисто-дождевые, Cu - кучевые, Cb - кучево-дождевые. Подробнее классификацию облаков см. в Атласе облаков (PDF).
T - Температура воздуха - температура, измеренная на высоте 2 м над землей.
Td - Температура точки росы - температура, при понижении до которой содержащийся в воздухе водяной пар достигнет насыщения.
f - Относительная влажность воздуха - влажноcть воздуха, измеренная на высоте 2 м над землей.
Te - Эффективная температура - температура, которую ощущает одетый по сезону человек в тени. Характеристика душности погоды. При расчете учитывается влияние влажности воздуха и скорости ветра на теплоощущения человека.
Tes - Эффективная температура на солнце - температура, которую ощущает человек, с поправкой на солнечный нагрев. Характеристика знойности погоды. Зависит от высоты солнца над горизонтом, облачности и скорости ветра. Ночью, в пасмурную погоду, а также при ветре 12 м/с и более поправка равна нулю.
P - Атмосферное давление - приведенное к уровню моря атмосферное давление.
Po - Атмосферное давление - измеренное на уровне метеостанции атмосферное давление.
Tmin - Минимальная температура - минимум температуры воздуха на высоте 2 м над землей.
Tmax - Максимальная температура - максимум температуры воздуха на высоте 2 м над землей.
R - Количество осадков - Количество выпавших осадков за период времени, мм. При наведении курсора мыши на число - период времени, за который выпало указанное количество осадков.
R24 - Количество осадков - Количество выпавших осадков за 24 часа, мм.
S - Снежный покров - Высота снежного покрова, см. При наведении курсора мыши на число - состояние снежного покрова и степень покрытия местности в баллах.